sat.trackr.live / text

‹ back to catalog

STARLINK-2156

NORAD 47742 · 2021-017W

PAYLOAD ACTIVE UNKNOWN

§ Identity

Operator
Country
US
Launch date
2021-03-04
Launch site
AFETR
Launch vehicle
Mass (kg)
RCS (m²)

Purposes: comms

External: N2YO · Heavens-Above · Gunter

§ Orbital elements

Epoch: 2026-05-24T20:46:14.117952Z

Period
94.01 min
Inclination
53.1590°
Eccentricity
0.0001550
Mean motion
15.31730599 rev/d
Perigee alt
469.6 km
Apogee alt
471.7 km
Semi-major
6,848.8 km
B*
2.9172e-4
RAAN
199.8627°
Arg perigee
68.3414°
Mean anomaly
291.7752°
Rev number
28,970

§ Raw data

STARLINK-21561 47742U 21017W   26144.86544118  .00008706  00000+0  29172-3 0  99932 47742  53.1590 199.8627 0001550  68.3414 291.7752 15.31730599289700

JSON: /api/v1/satellites/47742 · /tle

For live sub-satellite position, see the globe view (requires WebGL).

§ Visibility from observer

Set your observer location to see the next 7 days of passes ≥ 10°. The values pass through the URL so the page stays shareable.

No JS? Fill the form by hand. The geolocation button needs JavaScript.